FW4749 Weather Reports


Display with metric or nautical units.
time (UTC)temp
F
wind
direction
speed
MPH
gust
MPH
rain 1hr
in
rain 24hr
in
rain mn
in
humidity
%
barometer
mb
20260506175139 79 206 4.0 9.0 0.00 0.00 0.00 79 1009.4
20260506174633 81 189 3.0 9.0 0.00 0.00 0.00 77 1009.5
20260506174127 80 250 3.0 9.0 0.00 0.00 0.00 79 1009.5
20260506173620 80 265 2.0 9.0 0.00 0.00 0.00 81 1009.4
20260506173116 79 263 2.0 9.0 0.00 0.00 0.00 83 1009.5
20260506172609 78 259 2.0 8.0 0.00 0.00 0.00 84 1009.6
20260506172102 77 259 2.0 7.0 0.00 0.00 0.00 85 1009.6
20260506171557 77 249 2.0 7.0 0.00 0.00 0.00 85 1009.7
20260506171051 77 250 2.0 7.0 0.00 0.00 0.00 84 1009.7
20260506170544 78 249 2.0 7.0 0.00 0.00 0.00 84 1009.7
20260506170304 78 232 2.0 9.0 0.00 0.00 0.00 83 1009.7
20260506165533 78 240 2.0 9.0 0.00 0.00 0.00 83 1009.5
20260506165026 79 224 2.0 6.0 0.00 0.00 0.00 83 1009.6
20260506164521 78 215 1.0 5.0 0.00 0.00 0.00 83 1009.6
20260506164014 78 212 1.0 5.0 0.00 0.00 0.00 83 1009.6
20260506163509 78 207 1.0 5.0 0.00 0.00 0.00 82 1009.6
20260506163223 78 208 1.0 7.0 0.00 0.00 0.00 82 1009.5
20260506162456 78 205 2.0 7.0 0.00 0.00 0.00 82 1009.5
20260506161951 78 205 2.0 9.0 0.00 0.00 0.00 83 1009.5
20260506161705 78 194 2.0 9.0 0.00 0.00 0.00 83 1009.5
20260506160939 78 202 2.0 7.0 0.00 0.00 0.00 84 1009.4
20260506160432 77 201 3.0 7.0 0.00 0.00 0.00 84 1009.4
20260506155927 77 202 3.0 7.0 0.00 0.00 0.00 85 1009.4
20260506155423 77 234 2.0 7.0 0.00 0.00 0.00 86 1009.3
20260506154915 77 247 1.0 5.0 0.00 0.00 0.00 87 1009.3
20260506154409 76 263 1.0 3.0 0.00 0.00 0.00 87 1009.3
20260506153902 76 265 1.0 2.0 0.00 0.00 0.00 88 1009.1
20260506153357 76 265 1.0 2.0 0.00 0.00 0.00 88 1009.1
20260506152851 76 265 1.0 3.0 0.00 0.00 0.00 88 1009.0
20260506152344 76 265 0.0 3.0 0.00 0.00 0.00 89 1009.0
20260506151838 76 265 0.0 2.0 0.00 0.00 0.00 89 1008.9
20260506151333 75 265 0.0 3.0 0.00 0.00 0.00 90 1008.9
20260506150826 75 265 0.0 3.0 0.00 0.00 0.00 90 1008.8
20260506150320 75 265 0.0 1.0 0.00 0.00 0.00 91 1008.8
20260506145817 75 266 0.0 1.0 0.00 0.00 0.00 91 1008.7
20260506145317 75 266 0.0 2.0 0.00 0.00 0.00 92 1008.5
20260506145036 74 266 0.0 2.0 0.00 0.00 0.00 92 1008.6
20260506144317 74 266 0.0 2.0 0.00 0.00 0.00 92 1008.6
20260506143816 74 266 0.0 2.0 0.00 0.00 0.00 92 1008.7
20260506143317 74 266 1.0 2.0 0.00 0.00 0.00 92 1008.7
20260506142819 74 266 1.0 2.0 0.00 0.00 0.00 92 1008.8
20260506142319 74 266 0.0 3.0 0.00 0.00 0.00 92 1008.7
20260506141817 74 265 0.0 3.0 0.00 0.00 0.00 92 1008.8
20260506141315 74 265 0.0 3.0 0.00 0.00 0.00 92 1008.5
20260506140814 74 265 0.0 3.0 0.00 0.00 0.00 92 1008.3
20260506140315 74 266 0.0 2.0 0.00 0.00 0.00 92 1008.3
20260506135815 74 266 0.0 2.0 0.00 0.00 0.00 92 1008.2
20260506135314 74 266 0.0 4.0 0.00 0.00 0.00 92 1007.9
20260506134810 74 266 1.0 4.0 0.00 0.00 0.00 92 1007.8
20260506134311 74 266 1.0 4.0 0.00 0.00 0.00 92 1007.6
20260506133811 74 266 1.0 4.0 0.00 0.00 0.00 92 1007.5
20260506133539 74 267 1.0 4.0 0.00 0.00 0.00 92 1007.3
20260506132811 74 269 1.0 6.0 0.00 0.00 0.00 92 1007.3
20260506132311 74 269 1.0 6.0 0.00 0.00 0.00 92 1007.3
20260506131810 74 269 1.0 6.0 0.00 0.00 0.00 92 1007.3
20260506131529 74 269 1.0 6.0 0.00 0.00 0.00 92 1007.3
20260506130810 74 273 0.0 3.0 0.00 0.00 0.00 92 1007.3
20260506130311 74 272 0.0 2.0 0.00 0.00 0.00 92 1007.2
20260506125810 74 272 0.0 3.0 0.00 0.00 0.00 92 1007.1
20260506125310 74 272 1.0 3.0 0.00 0.00 0.00 92 1007.0
20260506124810 74 273 1.0 3.0 0.00 0.00 0.00 92 1006.9
20260506124311 74 273 1.0 6.0 0.00 0.00 0.00 92 1006.9
20260506123810 74 273 1.0 6.0 0.00 0.00 0.00 92 1006.9
20260506123311 74 276 1.0 3.0 0.00 0.00 0.00 92 1006.9
20260506122810 74 277 1.0 4.0 0.00 0.00 0.00 92 1006.9
20260506122310 74 277 1.0 4.0 0.00 0.00 0.00 92 1006.9
20260506121810 74 277 1.0 4.0 0.00 0.00 0.00 92 1006.8
20260506121309 74 283 0.0 2.0 0.00 0.00 0.00 92 1006.8
20260506120306 74 283 0.0 3.0 0.00 0.00 0.00 92 1006.9
20260506115805 74 283 0.0 1.0 0.00 0.00 0.00 92 1006.8
20260506115307 74 283 0.0 1.0 0.00 0.00 0.00 92 1006.8
20260506114802 74 283 0.0 1.0 0.00 0.00 0.00 92 1006.9
20260506114301 74 283 0.0 2.0 0.00 0.00 0.00 92 1006.9
20260506113800 74 283 0.0 2.0 0.00 0.00 0.00 92 1006.9
20260506113258 74 283 0.0 0.0 0.00 0.00 0.00 92 1007.0
20260506112757 74 283 0.0 1.0 0.00 0.00 0.00 92 1006.9
20260506112254 74 283 0.0 1.0 0.00 0.00 0.00 92 1006.9
20260506111753 74 283 0.0 1.0 0.00 0.00 0.00 92 1006.9
20260506111250 74 283 0.0 1.0 0.00 0.00 0.00 92 1006.9
20260506110749 74 283 1.0 2.0 0.00 0.00 0.00 92 1006.9
20260506110251 74 283 1.0 4.0 0.00 0.00 0.00 92 1006.9
20260506110006 74 283 1.0 4.0 0.00 0.00 0.00 92 1006.9
20260506105247 74 283 1.0 4.0 0.00 0.00 0.00 92 1006.9
20260506104744 74 283 1.0 4.0 0.00 0.00 0.00 92 1006.9
20260506104244 74 281 1.0 2.0 0.00 0.00 0.00 91 1006.8
20260506103738 74 281 1.0 2.0 0.00 0.00 0.00 91 1006.7
20260506103233 74 281 1.0 2.0 0.00 0.00 0.00 91 1006.7
20260506102953 74 280 1.0 2.0 0.00 0.00 0.00 91 1006.7
20260506102220 74 277 0.0 2.0 0.00 0.00 0.00 91 1006.8
20260506101714 74 0 0.0 2.0 0.00 0.00 0.00 91 1006.9
20260506101207 74 279 0.0 2.0 0.00 0.00 0.00 91 1006.8
20260506100927 74 0 1.0 2.0 0.00 0.00 0.00 91 1006.8
20260506100156 74 280 1.0 4.0 0.00 0.00 0.00 91 1006.7
20260506095649 74 280 1.0 3.0 0.00 0.00 0.00 91 1006.8
20260506095144 74 280 1.0 4.0 0.00 0.00 0.00 91 1006.8
20260506094900 74 279 1.0 3.0 0.00 0.00 0.00 91 1006.8
20260506094355 74 279 1.0 6.0 0.00 0.00 0.00 91 1006.8
20260506093625 74 278 1.0 6.0 0.00 0.00 0.00 90 1006.8
20260506093120 74 275 1.0 6.0 0.00 0.00 0.00 90 1006.7
20260506092615 74 275 1.0 6.0 0.00 0.00 0.00 90 1006.6
20260506092108 74 321 1.0 8.0 0.00 0.00 0.00 90 1006.6
20260506091056 74 323 1.0 8.0 0.00 0.00 0.00 90 1006.6
20260506090550 74 32 1.0 8.0 0.00 0.00 0.00 90 1006.5
20260506090044 74 344 1.0 5.0 0.00 0.00 0.00 90 1006.3
20260506085759 74 344 1.0 5.0 0.00 0.00 0.00 90 1006.3
20260506085032 74 339 1.0 6.0 0.00 0.00 0.00 90 1006.3
20260506084747 74 338 2.0 6.0 0.00 0.00 0.00 90 1006.3
20260506084242 74 21 3.0 7.0 0.00 0.00 0.00 90 1006.5
20260506083513 74 22 2.0 7.0 0.00 0.00 0.00 90 1006.5
20260506082735 74 19 2.0 5.0 0.00 0.00 0.00 90 1006.3
20260506082012 74 19 2.0 7.0 0.00 0.00 0.00 90 1006.3
20260506081512 74 17 2.0 7.0 0.00 0.00 0.00 90 1006.3
20260506081013 74 36 2.0 6.0 0.00 0.00 0.00 90 1006.6
20260506080512 74 37 2.0 6.0 0.00 0.00 0.00 90 1006.6
20260506073512 75 46 2.0 4.0 0.00 0.00 0.00 90 1006.7
20260506073012 75 44 1.0 4.0 0.00 0.00 0.00 90 1006.7
20260506072512 75 42 1.0 4.0 0.00 0.00 0.00 90 1006.8
20260506072010 75 45 1.0 5.0 0.00 0.00 0.00 90 1006.9
20260506071510 75 49 1.0 5.0 0.00 0.00 0.00 90 1006.9
20260506071012 75 50 1.0 5.0 0.00 0.00 0.00 89 1007.0
20260506070734 75 50 1.0 5.0 0.00 0.00 0.00 89 1007.1
20260506062419 75 59 1.0 4.0 0.00 0.00 0.00 89 1007.1
20260506062131 75 59 1.0 6.0 0.00 0.00 0.00 89 1007.1
20260506061416 75 60 1.0 6.0 0.00 0.00 0.00 89 1007.1
20260506060916 75 60 2.0 6.0 0.00 0.00 0.00 89 1007.2
20260506060415 75 60 2.0 6.0 0.00 0.00 0.00 88 1007.2
20260506051413 76 279 1.0 6.0 0.00 0.00 0.00 88 1006.9
20260506050914 76 278 1.0 6.0 0.00 0.00 0.00 88 1006.9
20260506050413 76 298 2.0 5.0 0.00 0.00 0.00 88 1006.9
20260506044902 76 303 1.0 7.0 0.00 0.00 0.00 88 1007.0
20260506044357 76 304 1.0 7.0 0.00 0.00 0.00 88 1006.9
20260506043343 76 333 1.0 5.0 0.00 0.00 0.00 88 1006.8
20260506042837 76 344 1.0 5.0 0.00 0.00 0.00 88 1006.8
20260506042332 77 5 1.0 4.0 0.00 0.00 0.00 88 1006.8
20260506042046 77 11 0.0 4.0 0.00 0.00 0.00 88 1006.8
20260506041320 77 16 1.0 4.0 0.00 0.00 0.00 88 1006.7
20260506040813 77 16 1.0 7.0 0.00 0.00 0.00 88 1006.7
20260506040308 77 19 1.0 7.0 0.00 0.00 0.00 88 1006.6
20260506035801 77 259 1.0 7.0 0.00 0.00 0.00 87 1006.7
20260506035256 77 260 1.0 7.0 0.00 0.00 0.00 87 1006.6
20260506034756 77 262 1.0 7.0 0.00 0.00 0.00 87 1006.3
20260506034522 77 263 1.0 7.0 0.00 0.00 0.00 87 1006.5
20260506033250 77 269 0.0 4.0 0.00 0.00 0.00 87 1006.3
20260506032751 77 270 1.0 4.0 0.00 0.00 0.00 86 1006.2
20260506032509 77 271 1.0 4.0 0.00 0.00 0.00 86 1006.2
20260506031746 77 271 1.0 4.0 0.00 0.00 0.00 86 1006.2
20260506031506 77 273 1.0 4.0 0.00 0.00 0.00 85 1006.1
20260506030744 77 273 1.0 6.0 0.00 0.00 0.00 85 1006.0
20260506030241 77 274 1.0 6.0 0.00 0.00 0.00 84 1005.8
20260506030003 77 264 0.0 2.0 0.00 0.00 0.00 84 1005.8
20260506024740 77 263 0.0 2.0 0.00 0.00 0.00 84 1005.7
20260506024240 78 263 0.0 1.0 0.00 0.00 0.00 84 1005.6
20260506023739 78 263 0.0 2.0 0.00 0.00 0.00 83 1005.5
20260506023238 78 263 0.0 2.0 0.00 0.00 0.00 83 1005.4
20260506022736 78 263 0.0 3.0 0.00 0.00 0.00 82 1005.3
20260506022233 78 263 0.0 3.0 0.00 0.00 0.00 82 1005.4
20260506021736 78 263 0.0 4.0 0.00 0.00 0.00 82 1005.4
20260506020730 79 263 1.0 4.0 0.00 0.00 0.00 81 1005.2
20260506020230 79 263 1.0 4.0 0.00 0.00 0.00 81 1005.2
20260506015954 79 263 1.0 4.0 0.00 0.00 0.00 81 1005.0
20260506015227 79 261 1.0 3.0 0.00 0.00 0.00 81 1005.0
20260506014728 79 261 0.0 3.0 0.00 0.00 0.00 81 1004.8
20260506014448 79 261 0.0 3.0 0.00 0.00 0.00 80 1004.6
20260506013727 79 261 0.0 3.0 0.00 0.00 0.00 80 1004.6
20260506013227 79 261 0.0 3.0 0.00 0.00 0.00 80 1004.5
20260506012728 80 261 1.0 3.0 0.00 0.00 0.00 79 1004.4
20260506012450 80 261 1.0 3.0 0.00 0.00 0.00 79 1004.5
20260506011724 80 261 0.0 3.0 0.00 0.00 0.00 78 1004.5
20260506011223 80 261 0.0 3.0 0.00 0.00 0.00 78 1004.5
20260506010723 81 261 1.0 2.0 0.00 0.00 0.00 78 1004.4
20260506010440 81 261 0.0 2.0 0.00 0.00 0.00 78 1004.4
20260506005723 81 261 0.0 2.0 0.00 0.00 0.00 78 1004.5
20260506005223 81 261 0.0 2.0 0.00 0.00 0.00 78 1004.5
20260506004724 81 261 0.0 2.0 0.00 0.00 0.00 77 1004.5
20260506004224 82 261 0.0 2.0 0.00 0.00 0.00 78 1004.4
20260506003717 82 261 0.0 1.0 0.00 0.00 0.00 78 1004.4
20260506003217 82 261 0.0 0.0 0.00 0.00 0.00 75 1004.6
20260506002718 82 261 0.0 0.0 0.00 0.00 0.00 75 1004.5
20260506002217 82 261 0.0 0.0 0.00 0.00 0.00 74 1004.6
20260506001717 82 261 0.0 0.0 0.00 0.00 0.00 74 1004.6
20260506001217 83 261 0.0 1.0 0.00 0.00 0.00 73 1004.6
20260506000718 83 261 0.0 2.0 0.00 0.00 0.00 73 1004.5
20260506000219 83 261 0.0 2.0 0.00 0.00 0.00 72 1004.4
20260505235717 83 261 0.0 1.0 0.00 0.00 0.00 73 1004.3
20260505235218 83 261 0.0 3.0 0.00 0.00 0.00 71 1004.4
20260505234717 84 261 0.0 3.0 0.00 0.00 0.00 71 1004.4
20260505234217 84 261 1.0 3.0 0.00 0.00 0.00 70 1004.3
20260505233718 85 261 1.0 4.0 0.00 0.00 0.00 69 1004.3
20260505233219 85 261 1.0 6.0 0.00 0.00 0.00 68 1004.3
20260505232717 85 259 1.0 6.0 0.00 0.00 0.00 69 1004.4
20260505232218 85 15 1.0 4.0 0.00 0.00 0.00 70 1004.3
20260505231711 84 15 1.0 4.0 0.00 0.00 0.00 70 1004.4
20260505231205 84 14 2.0 5.0 0.00 0.00 0.00 70 1004.4
20260505230658 84 13 2.0 5.0 0.00 0.00 0.00 70 1004.3
20260505230418 84 355 2.0 4.0 0.00 0.00 0.00 70 1004.3
20260505225646 85 355 1.0 4.0 0.00 0.00 0.00 69 1004.2
20260505225141 85 9 2.0 4.0 0.00 0.00 0.00 69 1004.3
20260505224634 85 10 2.0 4.0 0.00 0.00 0.00 69 1004.2
20260505224129 85 5 2.0 4.0 0.00 0.00 0.00 68 1004.2
20260505223622 85 5 2.0 5.0 0.00 0.00 0.00 70 1004.2
20260505223117 85 19 2.0 6.0 0.00 0.00 0.00 70 1004.2
20260505222610 85 32 3.0 7.0 0.00 0.00 0.00 68 1004.2
20260505222105 86 250 2.0 7.0 0.00 0.00 0.00 69 1004.2
20260505221558 86 283 2.0 5.0 0.00 0.00 0.00 69 1004.2
20260505221053 85 5 2.0 9.0 0.00 0.00 0.00 69 1004.2
20260505220548 85 250 3.0 9.0 0.00 0.00 0.00 68 1004.1
20260505220040 85 20 3.0 7.0 0.00 0.00 0.00 68 1004.2
20260505215536 85 11 3.0 9.0 0.00 0.00 0.00 68 1004.1
20260505215029 86 23 3.0 9.0 0.00 0.00 0.00 69 1004.3
20260505214234 85 17 2.0 5.0 0.00 0.00 0.00 69 1004.3
20260505213511 85 22 3.0 8.0 0.00 0.00 0.00 69 1004.4
20260505213229 85 21 3.0 8.0 0.00 0.00 0.00 68 1004.4
20260505212459 85 0 3.0 8.0 0.00 0.00 0.00 68 1004.7
20260505211952 85 36 4.0 9.0 0.00 0.00 0.00 68 1004.8
20260505211447 85 24 3.0 9.0 0.00 0.00 0.00 68 1004.8
20260505210940 85 13 3.0 7.0 0.00 0.00 0.00 69 1004.8
20260505210435 85 38 3.0 7.0 0.00 0.00 0.00 70 1004.8
20260505205928 84 40 3.0 10.0 0.00 0.00 0.00 69 1004.9
20260505205423 84 286 3.0 10.0 0.00 0.00 0.00 69 1005.2
20260505204918 85 32 4.0 10.0 0.00 0.00 0.00 69 1005.3
20260505204411 85 42 3.0 10.0 0.00 0.00 0.00 68 1005.3
20260505203905 85 20 2.0 8.0 0.00 0.00 0.00 70 1005.3
20260505203359 85 285 3.0 8.0 0.00 0.00 0.00 71 1005.5
20260505202852 84 19 3.0 8.0 0.00 0.00 0.00 70 1005.5
20260505202347 84 22 3.0 8.0 0.00 0.00 0.00 71 1005.4
20260505201840 85 17 4.0 10.0 0.00 0.00 0.00 70 1005.5
20260505201334 84 38 5.0 11.0 0.00 0.00 0.00 70 1005.7
20260505200829 84 5 4.0 11.0 0.00 0.00 0.00 72 1005.6
20260505200325 83 21 3.0 10.0 0.00 0.00 0.00 70 1005.7
20260505195817 84 22 3.0 10.0 0.00 0.00 0.00 72 1005.8
20260505195537 84 0 2.0 10.0 0.00 0.00 0.00 71 1005.8
20260505195032 84 28 3.0 10.0 0.00 0.00 0.00 72 1006.0
20260505194259 83 34 4.0 12.0 0.00 0.00 0.00 72 1006.0
20260505193752 84 34 4.0 12.0 0.00 0.00 0.00 70 1006.0
20260505193247 83 19 4.0 11.0 0.00 0.00 0.00 71 1006.0
20260505192958 83 22 4.0 9.0 0.00 0.00 0.00 72 1006.0
20260505192235 82 34 3.0 9.0 0.00 0.00 0.00 73 1006.1
20260505191954 82 9 3.0 9.0 0.00 0.00 0.00 74 1006.1
20260505191222 82 66 2.0 9.0 0.00 0.00 0.00 74 1006.2
20260505190717 81 66 1.0 9.0 0.00 0.00 0.00 76 1006.2
20260505190211 80 42 2.0 10.0 0.00 0.00 0.00 77 1006.3
20260505185705 80 40 2.0 10.0 0.00 0.00 0.00 77 1006.3
20260505185158 80 41 2.0 6.0 0.00 0.00 0.00 78 1006.6
20260505184652 79 41 3.0 7.0 0.00 0.00 0.00 78 1006.8
20260505184147 80 41 3.0 7.0 0.00 0.00 0.00 76 1006.9
20260505183641 80 46 2.0 4.0 0.00 0.00 0.00 78 1006.8
20260505183358 79 46 2.0 4.0 0.00 0.00 0.00 80 1006.9
20260505182628 79 45 1.0 4.0 0.00 0.00 0.00 79 1007.0
20260505182346 78 44 2.0 5.0 0.00 0.00 0.00 80 1007.1
20260505181618 78 44 3.0 5.0 0.00 0.00 0.00 80 1007.1
20260505181111 77 44 2.0 5.0 0.00 0.00 0.00 81 1007.2
20260505180605 77 44 2.0 5.0 0.00 0.00 0.00 82 1007.2
20260505180320 77 44 2.0 5.0 0.00 0.00 0.00 81 1007.3
20260505175816 77 46 4.0 9.0 0.00 0.00 0.00 82 1007.3